Starlink 3746

operational
NORAD ID: 52268 Int'l Des: 2022-041 Owner: SPXS Country: US Constellation: starlink
LEOCIRCULAR

Über Starlink 3746

Beschreibung wird geladen...

Live-Position

3D-Globus wird geladen...

Nächste Überflüge

Höhenverlauf

Altitude vs Time

uPlot chart will show altitude changes over time

Zweizeiliger Elementsatz

1 52268U 22041H 25296.49561062 .00001517 00000-0 11340-3 0 9995
2 52268 53.2183 4.9324 0001409 89.8070 270.3084 15.08844166193656
Epoch: 23. Okt. 2025 • Age: 32 hours

Aktueller Status

Höhe 548.3 km
Geschwindigkeit 7.59 km/s
Subsatellitenpunkt -26.95°S, 10.27°E
Startdatum 21. Apr. 2022
Alter 3.5 years
Typ internet

Technische Details

Klassifizierung Payload
Masse 297.00 kg
Trockenmasse 275.00 kg
Gesamtmasse 297.00 kg
Länge 0.20 m
Durchmesser 2.80 m
Spannweite 9.00 m
Form Box + pan
Hersteller SPXS
Bus-Typ Starlink
Phasenstatus In Orbit
Besitzer/Staat SPXS/US

Große Konstellationen

Loading constellations...